Location: Eenumerhoogte
(53.3420°N, 6.7843°E)
Time: 11:28:08
(UTC+00:00)

Cosmos-2242 - Pass Details

Date: 15 May 2026
Orbit: 565 x 588 km, 82.5° (Epoch: 8 June)

Event Time Altitude Azimuth Distance (km) Brightness Sun altitude
Exits shadow 21:37:48 23° 158° (SSE) 1,234 4.0 -13.7°
Maximum altitude 21:40:04 48° 95° (E) 754 3.3 -13.9°
Drops below altitude 10° 21:44:02 10° 21° (NNE) 1,877 6.2 -14.1°
Sets 21:46:16 0° 16° (NNE) 2,778 7.2 -14.3°
